Home > Weather > Gunsan > Past weeks

Flag for South Korea Past Weather in Gunsan, South Korea — Yesterday and Last 2 Weeks

Now
66 °F

Haze.


Feels Like: 66 °F
Forecast: 60 / 78 °F
Wind: 7 mph from Northwest

Location: Kunsan Ab

Current Time: May 26, 2016 at 9:42:01 PM

Latest Report: May 26, 2016 at 8:58 PM


Visibility: 2 mi

Pressure: 29.85 "Hg

Humidity: 82%

Dew Point: 61 °F

Location of GunsanLocation

Past Weather in Gunsan — Graph

°F

Gunsan Temperature Yesterday

Maximum temperature yesterday: 73 °F (at 3:58 PM)
Minimum temperature yesterday: 57 °F (at 4:04 AM)
Average temperature yesterday: 65 °F

High & Low Weather Summary for the Past Weeks

 TemperatureHumidityPressure
High83 °F (May 22, 2:58 PM)100% (May 13, 4:00 AM)30.23 "Hg (May 13, 4:00 AM)
Low51 °F (May 16, 3:58 AM)24% (May 22, 3:58 PM)29.67 "Hg (May 15, 6:59 PM)
Average65 °F74%29.97 "Hg
* Reported May 11 8:58 PM — May 26 8:03 PM, Gunsan, Weather by CustomWeather, © 2016

Note: Actual official high and low records may vary slightly from our data, if they occured in-between our weather recording intervals... More about our weather records

Advertising

Gunsan Weather History for the Previous 24 Hours

Scroll right to see more
 ConditionsComfort  
Time TempWeatherWind HumidityBarometerVisibility
8:03 PM
Thu, May 26
68 °FClear.8 mph78%29.82 "Hg3 mi
6:58 PM70 °FSunny.7 mph74%29.82 "Hg3 mi
5:58 PM71 °FSunny.7 mph73%29.80 "Hg3 mi
4:58 PM73 °FHaze.7 mph62%29.81 "Hg4 mi
3:58 PM73 °FHaze.9 mph68%29.81 "Hg5 mi
2:58 PM74 °FScattered clouds.10 mph62%29.83 "Hg4 mi
1:58 PM74 °FScattered clouds.9 mph67%29.83 "Hg4 mi
12:58 PM73 °FBroken clouds.10 mph67%29.84 "Hg5 mi
11:58 AM73 °FScattered clouds.7 mph69%29.84 "Hg6 mi
10:58 AM71 °FScattered clouds.8 mph72%29.86 "Hg4 mi
9:58 AM70 °FScattered clouds.7 mph76%29.85 "Hg3 mi
8:58 AM69 °FHaze.1 mph76%29.85 "Hg3 mi
7:58 AM65 °FFog.2 mph89%29.85 "Hg2 mi
7:02 AM63 °FFog.3 mph94%29.84 "Hg1 mi
6:56 AM63 °FFog.3 mph94%29.83 "Hg1 mi
6:04 AM63 °FFog.6 mph94%29.85 "Hg1 mi
5:58 AM62 °FFog.5 mph97%29.86 "Hg1 mi
5:46 AM63 °FFog.6 mph94%29.85 "Hg1 mi
5:04 AM63 °FFog.1 mph94%29.86 "Hg2 mi
4:01 AM63 °FFog.6 mph94%29.84 "Hg3 mi
2:59 AM63 °FFog.3 mph94%29.85 "Hg2 mi
1:58 AM63 °FFog.3 mph92%29.86 "Hg4 mi
12:58 AM65 °FClear.3 mph85%29.86 "Hg6 mi
11:58 PM
Wed, May 25
65 °FClear.3 mph87%29.88 "Hg6 mi
9:58 PM66 °FClear.5 mph83%29.87 "Hg6 mi
Weather by CustomWeather, © 2016

See weather overviewHow to use our weather pages